OPS 4682 DEB, 18964

Orbit data source: Space-Track

OPS 4682 DEB, 18964 is space debris in LEO originally from a launch on Sat, 03 Apr 1965 UTC launched from the Air Force Western Test Range (AFWTR). Debris objects in space refer to the collection of defunct objects orbiting the Earth. Examples of debris include non-operational satellites, rocket bodies, and fragments generated from explosions, collisions, or faulty payload assembly.

Loading next visibility...
Identifier
18964, 1965-027AM
Orbit
LEO
Country
Flag of USUS
Related business
Manufacturer
Unknown
Mission
Spacecraft
Bus & Motor
Unknown
Mass
Unknown
Launch date (UTC)
1965-04-03 (61 years ago)
Launch vehicle
Unknown
Launch site
Air Force Western Test Range (AFWTR)
Object type
Payload
Rocket body
Debris
Shape & HBR
Unknown shape, 0.1 m
Radar Cross Section
Small (<0.1 m²)

Expand to show TLE details & history
Last TLE update: 10 hours ago

TLE from 10 hours ago
0 OPS 4682 DEB
1 18964U 65027AM  26036.34810726  .00000515  00000-0  17402-2 0  9993
2 18964  90.2449 356.9365 0033608  88.7001  66.0883 12.97663860838366
Epoch: 2026-02-05T08:21Z
TLE epoch observation values (Epoch: 2026-02-05T08:21:16.467Z)
Latitude
24.88333°
Longitude
-83.77072°
Altitude
1,263.91 km
Speed
7.23 km/s
True Right ascension
11h 48m 11s
True Declination
24° 45' 40"
Sunlit
Object was in full shadow at epoch
Visualization orbit readout
Latitude
Unknown
Longitude
Unknown
Altitude
Unknown
Speed
Unknown
Apparent Right ascension
Unknown
Apparent Declination
Unknown
Sunlit
N/A
Visualization observer readout
Local Sidereal Time
20:02:01
Azimuth
Unknown
Elevation
Unknown
Doppler factor
Unknown
Orbital elements
Apogee altitude
1,294.082 km
Perigee altitude
1,242.685 km
Semi-major axis
7,646.521 km
Eccentricity
0.00336
Inclination
90.2449°
RAAN
356.9365°
Arg. of periapsis
88.7001°
True anomaly
66.44096°
Mean anomaly
66.0883°
Eccentric anomaly
66.26457°
Mean motion
3.24599 °/min
Orbital period
110.91 mins
BSTAR
0.0017402
Loading maneuver chart data...
Computing Atmospheric mass density...
Loading historical data...
Loading historical data...
Loading historical data...
Loading historical data...
Loading historical data...
Loading historical data...
Loading historical data...

Documentation

Showing up to 5 results
|